Stations météo

réclame
Mon MeteoGroup
Malilla, Suède (2565): Température de l'air & dewpoint: 12.01.2019 13:00:00 - 18.01.2019 13:00:00 (CET)Malilla, Suède (2565): Vitesse du vent & gusts: 12.01.2019 13:00:00 - 18.01.2019 13:00:00 (CET)Malilla, Suède (2565): Direction du vent: 12.01.2019 13:00:00 - 18.01.2019 13:00:00 (CET)Malilla, Suède (2565): reduced air pressure: 12.01.2019 13:00:00 - 18.01.2019 13:00:00 (CET)Malilla, Suède (2565): visibility: 12.01.2019 13:00:00 - 18.01.2019 13:00:00 (CET)Malilla, Suède (2565): Quantités de précipitations: 12.01.2019 13:00:00 - 18.01.2019 13:00:00 (CET)
Date & Time tt [°C] td [°C] ff [km/h] ff [knt] fx [km/h] fx [knt] dd ppp [hPa] vv [km] rr [mm]
18.01.2019 13:00:00 -1,3 -7,5 18 10 29 16 SW 1008,8 39 0,0
18.01.2019 12:00:00 -2,2 -6,9 17 9 25 14 SW 1008,4 35 0,0
18.01.2019 11:00:00 -3,3 -6,6 12 7 21 11 SW 1008,1 30 0,0
18.01.2019 10:00:00 -4,5 -6,9 11 6 16 9 SW 1007,6 50 0,0
18.01.2019 09:00:00 -5,8 -7,6 12 6 16 9 SW 1006,9 13 0,0
18.01.2019 08:00:00 -7,0 -8,2 10 5 14 8 SW 1005,9 14 0,0
18.01.2019 07:00:00 -6,9 -8,1 6 4 14 8 SW 1005,3 11 0,0
18.01.2019 06:00:00 -6,7 -7,9 9 5 20 11 SW 1004,7 12 0,0
18.01.2019 05:00:00 -6,2 -7,7 10 5 20 11 SW 1004,0 20 0,0
18.01.2019 04:00:00 -6,4 -7,8 10 5 16 9 SW 1003,4 12 0,0
18.01.2019 03:00:00 -6,2 -7,7 10 5 16 9 SW 1002,8 12 0,0
18.01.2019 02:00:00 -6,2 -7,6 9 5 14 7 SW 1002,3 13 0,0
18.01.2019 01:00:00 -5,9 -7,4 8 5 13 7 SW 1001,8 14 0,0
18.01.2019 00:00:00 -5,7 -7,4 5 3 18 10 SW 1001,2 16 0,0
17.01.2019 23:00:00 -4,6 -7,0 7 4 24 13 WSW 1000,7 13 0,0
17.01.2019 22:00:00 -3,8 -6,7 9 5 24 13 W 999,8 18 0,0
17.01.2019 21:00:00 -3,1 -6,1 12 7 31 17 WNW 998,6 14 0,0
17.01.2019 20:00:00 -3,0 -6,0 12 7 31 17 NW 997,4 15 0,0
17.01.2019 19:00:00 -2,8 -5,1 11 6 19 10 WNW 996,1 15 0,0
17.01.2019 18:00:00 -2,9 -5,2 9 5 23 13 WNW 995,1 12 0,0
17.01.2019 17:00:00 -2,9 -5,2 9 5 23 13 WNW 994,4 12 0,0
17.01.2019 16:00:00 -2,9 -5,4 11 6 22 12 WNW 993,2 16 0,0
17.01.2019 15:00:00 -2,4 -5,1 9 5 25 14 WNW 991,9 15 0,0
17.01.2019 14:00:00 -2,5 -5,5 12 7 25 14 WNW 991,2 16 0,0
17.01.2019 13:00:00 -1,8 -5,0 14 8 27 14 W 990,5 20 0,0
17.01.2019 12:00:00 -1,8 -5,5 14 8 26 14 W 989,7 10 0,0
17.01.2019 11:00:00 -1,6 -4,8 13 7 31 17 WSW 988,7 12 0,0
17.01.2019 10:00:00 -1,3 -3,5 10 5 31 17 WSW 987,7 16 0,0
17.01.2019 09:00:00 -0,5 -2,2 11 6 28 15 WNW 986,4 14 0,0
17.01.2019 08:00:00 2,0 1,1 13 7 25 14 WSW 984,7 7 0,1
17.01.2019 07:00:00 2,1 0,8 13 7 25 14 SSW 983,6 14 0,0
17.01.2019 06:00:00 2,1 1,1 13 7 29 16 SSW 983,4 20 0,1
17.01.2019 05:00:00 3,4 2,2 14 8 30 16 SSW 983,3 31 0,4
17.01.2019 04:00:00 3,8 2,5 16 8 31 17 S 983,4 26 0,0
17.01.2019 03:00:00 3,9 2,6 11 6 31 17 S 983,7 42 0,3
17.01.2019 02:00:00 4,7 3,7 14 8 33 18 SSW 983,8 22 0,6
17.01.2019 01:00:00 5,1 3,9 17 9 40 21 S 984,1 14 0,3
17.01.2019 00:00:00 5,7 4,0 22 12 40 21 S 984,3 19 0,0
16.01.2019 23:00:00 5,8 3,6 25 14 40 21 S 984,9 40 0,1
16.01.2019 22:00:00 5,9 3,6 20 11 38 21 S 985,5 15 0,0
16.01.2019 21:00:00 5,6 3,6 16 9 29 16 S 986,5 20 0,0
16.01.2019 20:00:00 5,1 3,3 14 8 25 14 S 987,3 16 0,0
16.01.2019 19:00:00 4,9 3,7 14 8 26 14 S 988,1 15 0,0
16.01.2019 18:00:00 4,9 3,4 15 8 26 14 S 989,1 14 0,1
16.01.2019 17:00:00 4,7 3,5 15 8 23 12 S 990,0 15 0,0
16.01.2019 16:00:00 3,3 2,9 12 7 18 10 SE 990,8 12 0,0
16.01.2019 15:00:00 1,8 1,4 6 4 14 8 ESE 991,8 12 0,0
16.01.2019 14:00:00 0,9 0,5 6 3 20 11 SSE 993,0 29 -
16.01.2019 13:00:00 -0,1 -0,5 11 6 22 12 ESE 994,2 6 0,0
16.01.2019 12:00:00 -1,1 -1,7 9 5 19 11 E 995,9 3,8 0,1
16.01.2019 11:00:00 -1,6 -2,2 9 5 16 8 ESE 997,2 4,2 0,6
16.01.2019 10:00:00 -2,5 -3,2 5 3 8 4 ESE 998,1 3,3 0,2
16.01.2019 09:00:00 -4,0 -4,7 3 2 6 3 NE 998,7 - 0,0
16.01.2019 08:00:00 -6,2 -7,0 0 0 5 3 N 999,0 15 0,0
16.01.2019 07:00:00 -6,4 -7,1 0 0 4 2 N 999,3 7 0,0
16.01.2019 06:00:00 -5,0 -5,8 0 0 4 2 N 999,4 13 0,0
16.01.2019 05:00:00 -4,2 -4,9 2 1 7 4 SW 999,4 14 0,0
16.01.2019 04:00:00 -4,3 -5,1 0 0 7 4 N 999,3 16 0,0
16.01.2019 03:00:00 -3,8 -4,5 2 1 5 3 SE 998,9 13 0,0
16.01.2019 02:00:00 -4,2 -4,9 0 0 6 3 N 998,3 16 0,0
16.01.2019 01:00:00 -4,4 -5,2 0 0 8 5 N 997,8 17 0,0
16.01.2019 00:00:00 -3,5 -4,3 4 2 8 5 SSW 997,2 15 0,0
15.01.2019 23:00:00 -3,1 -3,9 3 1 7 4 S 996,8 14 0,0
15.01.2019 22:00:00 -3,2 -4,0 3 2 6 4 SSE 996,5 14 0,0
15.01.2019 21:00:00 -3,4 -4,2 4 2 6 3 SSW 996,1 10 0,0
15.01.2019 20:00:00 -3,2 -4,0 0 0 7 4 N 995,5 2,6 0,1
15.01.2019 19:00:00 -3,2 -4,0 3 2 7 4 W 995,0 3,7 0,2
15.01.2019 18:00:00 -3,2 -4,0 3 1 7 4 NW 994,7 1,6 0,3
15.01.2019 17:00:00 -3,1 -4,4 3 2 21 11 E 994,5 4,5 0,1
15.01.2019 16:00:00 -3,1 -4,7 6 3 27 15 S 995,3 9 0,1
15.01.2019 15:00:00 -2,8 -5,4 17 9 27 15 SSW 996,2 10 0,0
15.01.2019 14:00:00 -1,6 -7,7 12 7 18 10 SSW 996,8 16 0,0
15.01.2019 13:00:00 -1,5 -7,4 10 5 19 10 SSW 997,7 18 0,0
15.01.2019 12:00:00 -1,3 -7,9 14 8 20 11 SW 998,5 14 0,0
15.01.2019 11:00:00 - - - - 24 13 - - - -
15.01.2019 10:00:00 -2,4 -8,3 10 5 26 14 SW 999,4 16 0,0
15.01.2019 09:00:00 -3,2 -8,6 15 8 26 14 WSW 999,8 14 0,0
15.01.2019 08:00:00 -3,0 -8,5 16 9 32 17 SW 998,9 12 0,0
15.01.2019 07:00:00 -2,5 -8,4 17 9 32 17 SW 998,4 17 0,0
15.01.2019 06:00:00 -2,0 -7,9 20 11 32 17 WSW 998,1 17 0,0
15.01.2019 05:00:00 -1,7 -7,8 17 9 32 17 WSW 997,9 17 0,0
15.01.2019 04:00:00 -1,4 -7,5 19 11 31 17 WSW 997,4 15 0,0
15.01.2019 03:00:00 -1,1 -6,8 17 9 31 17 WSW 997,0 20 0,0
15.01.2019 02:00:00 -1,1 -6,6 15 8 32 18 WSW 996,5 15 0,0
15.01.2019 01:00:00 -0,9 -7,3 16 8 34 18 WSW 995,9 15 0,0
15.01.2019 00:00:00 -0,6 -7,2 16 9 36 20 WSW 995,5 15 0,0
14.01.2019 23:00:00 -0,1 -7,2 22 12 36 20 WSW 994,9 16 0,0
14.01.2019 22:00:00 -0,8 -7,2 15 8 30 16 WSW 994,5 16 0,0
14.01.2019 21:00:00 -0,7 -6,9 16 9 34 18 WSW 994,0 11 0,0
14.01.2019 20:00:00 0,1 -6,3 16 9 34 18 WSW 993,3 15 0,0
14.01.2019 19:00:00 0,3 -6,3 18 10 44 24 WSW 992,6 18 0,0
14.01.2019 18:00:00 -0,2 -7,2 16 8 44 24 W 991,8 20 0,0
14.01.2019 17:00:00 0,0 -7,7 21 11 45 24 WSW 990,6 13 0,0
14.01.2019 16:00:00 -0,5 -8,7 26 14 45 24 WSW 989,5 17 0,0
14.01.2019 15:00:00 -0,8 -9,7 24 13 43 23 WSW 988,3 19 0,0
14.01.2019 14:00:00 -0,9 -10,8 22 12 48 26 WSW 988,3 16 0,0
14.01.2019 13:00:00 -1,2 -10,9 26 14 48 26 WSW 988,0 19 0,0
14.01.2019 12:00:00 -1,7 -9,6 20 11 45 24 WSW 987,9 19 0,0
14.01.2019 11:00:00 -1,8 -9,9 23 12 42 23 WSW 987,8 15 0,0
14.01.2019 10:00:00 -2,2 -8,3 23 13 39 21 WSW 987,2 16 0,0
14.01.2019 09:00:00 -2,7 -7,8 21 12 34 18 WSW 986,5 14 0,0
14.01.2019 08:00:00 -3,0 -8,7 19 10 32 18 WSW 985,4 14 0,0
14.01.2019 07:00:00 -2,9 -8,6 18 10 32 17 WSW 984,6 17 0,0
14.01.2019 06:00:00 -2,8 -7,7 18 10 32 18 WSW 984,1 10 0,0
14.01.2019 05:00:00 -2,8 -7,1 18 10 32 17 WSW 983,5 14 0,0
14.01.2019 04:00:00 -2,9 -8,0 14 8 35 19 WSW 983,0 10 0,0
14.01.2019 03:00:00 -2,4 -7,3 16 9 36 19 W 982,3 10 0,0
14.01.2019 02:00:00 -1,7 -5,9 16 9 37 20 W 981,4 14 0,0
14.01.2019 01:00:00 -0,6 -4,1 18 10 39 21 W 980,3 19 0,0
14.01.2019 00:00:00 0,6 -2,1 16 9 39 21 W 979,2 17 0,0
13.01.2019 23:00:00 0,9 -1,5 17 9 34 18 WNW 978,5 18 0,0
13.01.2019 22:00:00 1,6 0,4 15 8 29 15 WNW 977,1 7 0,0
13.01.2019 21:00:00 1,9 1,6 9 5 15 8 W 976,2 10 0,1
13.01.2019 20:00:00 0,9 0,6 7 4 10 5 SW 975,6 - 0,0
13.01.2019 19:00:00 0,5 0,2 5 3 7 4 SSW 975,3 8 0,0
13.01.2019 18:00:00 0,1 -0,2 3 2 5 3 NW 975,4 6 0,0
13.01.2019 17:00:00 0,2 -0,2 0 0 4 2 N 975,7 6 0,0
13.01.2019 16:00:00 0,3 -0,1 3 1 7 4 S 976,7 3,5 0,2
13.01.2019 15:00:00 0,5 -0,1 0 0 8 5 N 977,6 10 0,0
13.01.2019 14:00:00 0,6 -0,1 4 2 10 5 ESE 979,1 4,2 0,0
13.01.2019 13:00:00 -0,1 -0,8 5 3 11 6 ESE 980,9 2,1 0,6
13.01.2019 12:00:00 -0,8 -1,5 7 4 11 6 SE 982,8 1,6 0,6
13.01.2019 11:00:00 -1,3 -2,3 6 3 12 7 SE 984,7 2,0 0,4
13.01.2019 10:00:00 -1,4 -3,3 8 4 23 13 SSE 986,6 17 0,0
13.01.2019 09:00:00 -1,6 -3,6 8 4 23 13 S 988,2 16 0,0
13.01.2019 08:00:00 -1,0 -3,2 12 6 23 12 SSW 989,9 13 0,0
13.01.2019 07:00:00 -0,7 -3,4 15 8 23 12 SSW 990,8 11 0,0
13.01.2019 06:00:00 -0,8 -2,5 3 2 10 5 SSW 991,7 12 0,0
13.01.2019 05:00:00 - - - - 10 5 - - - -
13.01.2019 04:00:00 -0,6 -1,7 5 3 10 5 SW 993,5 9 0,0
13.01.2019 03:00:00 -0,7 -1,5 0 0 8 4 N 993,5 8 0,0
13.01.2019 02:00:00 -0,6 -1,4 4 2 6 3 SSW 994,8 8 0,0
13.01.2019 01:00:00 -0,6 -1,6 0 0 5 3 N 994,6 9 0,0
13.01.2019 00:00:00 -0,6 -1,7 0 0 5 3 N 994,8 10 0,0
12.01.2019 23:00:00 -0,6 -1,6 3 1 4 2 WNW 995,1 - 0,0
12.01.2019 22:00:00 -0,5 -1,5 2 1 4 2 NNW 995,7 10 0,0
12.01.2019 21:00:00 -0,4 -1,4 0 0 3 2 N 996,0 7 0,0
12.01.2019 20:00:00 -0,4 -1,5 0 0 4 2 N 996,2 - 0,0
12.01.2019 19:00:00 -0,4 -1,5 0 0 5 3 N 996,4 - 0,0
12.01.2019 18:00:00 -0,3 -1,6 0 0 6 4 N 996,7 10 0,0
12.01.2019 17:00:00 -0,3 -1,7 0 0 7 4 N 997,2 14 0,0
12.01.2019 16:00:00 -0,2 -1,8 3 1 7 4 E 997,8 11 0,0
12.01.2019 15:00:00 -0,2 -1,8 4 2 14 8 E 998,4 - 0,0
12.01.2019 14:00:00 -0,2 -2,3 0 0 24 13 N 999,4 11 0,0
12.01.2019 13:00:00 -0,4 -3,1 9 5 24 13 S 1000,9 14 0,0

tt = Température de l'air
td = dewpoint
ff = Vitesse du vent
fx = gusts
dd = Direction du vent
ppp = reduced air pressure
vv = visibility
rr = Quantités de précipitations

stations d'obs. à proximité